Flag for U.S.A. Weather past 2 weeks in Cleveland, Tennessee, U.S.A.

Now
78 °F

Scattered clouds.


Feels Like: 80 °F
Forecast: 63 / 83 °F
Wind: 5 mph from South

Location: Lovell Field

Current Time: Sep 21, 2014 at 12:17:17 PM

Latest Report: Sep 21, 2014 at 10:53 AM


Visibility: 10 mi

Pressure: 30.02 "Hg

Humidity: 60%

Dew point: 63 °F

Location of ClevelandLocation

Historic Weather in Cleveland — Graph

°F

Cleveland temperature yesterday

Maximum temperature yesterday: 85 °F (at 4:53 PM)
Minimum temperature yesterday: 64 °F (at 5:53 AM)
Average temperature yesterday: 73 °F

Past Weeks' High & Low Weather Summary

 TemperatureHumidityPressure
High90 °F (Sep 6, 3:53 PM)94% (Sep 12, 1:53 AM)30.22 "Hg (Sep 12, 1:53 AM)
Low61 °F (Sep 18, 6:53 AM)32% (Sep 18, 3:53 PM)29.92 "Hg (Sep 17, 6:53 PM)
Average75 °F72%30.04 "Hg
* Reported Sep 6 10:53 AM — Sep 21 10:53 AM, Cleveland, Weather by CustomWeather, © 2014

Note: Actual official high and low records may vary slightly from our data, if they occured in-between our weather recording intervals... More about our weather records

Advertising

Cleveland weather history for previous 24 hours

 ConditionsComfort  
Time TempWeatherWind HumidityBarometerVisibility
10:53 AM
Sep 21
78 °FScattered clouds.5 mph60%30.02 "Hg10 mi
9:53 AM72 °FScattered clouds.5 mph71%30.01 "Hg10 mi
8:53 AM66 °FSunny.No wind81%30.02 "Hg10 mi
7:53 AM63 °FClear.No wind87%30.01 "Hg9 mi
6:53 AM63 °FClear.No wind87%30.00 "Hg7 mi
5:53 AM64 °FClear.No wind87%29.99 "Hg7 mi
4:53 AM64 °FClear.No wind87%29.99 "Hg10 mi
3:53 AM65 °FClear.No wind87%30.00 "Hg10 mi
2:53 AM66 °FClear.No wind87%30.01 "Hg10 mi
1:53 AM67 °FClear.No wind85%30.01 "Hg10 mi
12:53 AM67 °FClear.No wind87%30.03 "Hg10 mi
11:53 PM
Sep 20
68 °FPassing clouds.No wind84%30.05 "Hg10 mi
10:53 PM70 °FPassing clouds.No wind81%30.04 "Hg10 mi
9:53 PM72 °FPassing clouds.No wind73%30.02 "Hg10 mi
8:53 PM74 °FPassing clouds.No wind74%30.01 "Hg10 mi
7:53 PM79 °FScattered clouds.3 mph54%29.99 "Hg10 mi
6:53 PM83 °FScattered clouds.3 mph48%30.01 "Hg10 mi
5:53 PM84 °FScattered clouds.No wind41%30.01 "Hg10 mi
4:53 PM85 °FScattered clouds.No wind43%30.02 "Hg10 mi
3:53 PM84 °FScattered clouds.5 mph46%30.04 "Hg10 mi
2:53 PM83 °FScattered clouds.5 mph48%30.06 "Hg10 mi
1:53 PM81 °FScattered clouds.6 mph51%30.10 "Hg10 mi
Weather by CustomWeather, © 2014

See weather overviewHow to use our weather pages